Home   Weather   Richmond   Past weeks

Flag for USA Past Weather in Richmond, Virginia, USA — Yesterday and Last 2 Weeks

Now
54 °F

Light rain. Fog.


Feels Like: 49 °F
Forecast: 54 / 64 °F
Wind: 17 mph from Northeast

Location: Richmond International Airport

Current Time: Apr 24, 2017 at 9:01:54 pm

Latest Report: Apr 24, 2017 at 7:54 pm


Visibility: 3 mi

Pressure: 29.91 "Hg

Humidity: 97%

Dew Point: 53 °F

Location of RichmondLocation

Past Weather in Richmond — Graph

°F

Richmond Temperature Yesterday

Maximum temperature yesterday: 57 °F (at 1:54 pm)
Minimum temperature yesterday: 51 °F (at 3:02 am)
Average temperature yesterday: 53 °F

High & Low Weather Summary for the Past Weeks

 TemperatureHumidityPressure
High86 °F (Apr 21, 3:54 pm)100% (Apr 18, 1:54 am)30.44 "Hg (Apr 18, 1:54 am)
Low48 °F (Apr 14, 6:54 am)26% (Apr 10, 3:54 pm)29.80 "Hg (Apr 21, 5:54 pm)
Average64 °F70%30.15 "Hg
* Reported Apr 9 7:54 pm — Apr 24 7:54 pm, Richmond, Weather by CustomWeather, © 2017

Note: Actual official high and low records may vary slightly from our data, if they occured in-between our weather recording intervals... More about our weather records

Advertising

Richmond Weather History for the Previous 24 Hours

Scroll right to see more
 ConditionsComfort  
Time TempWeatherWind HumidityBarometerVisibility
7:54 pm
Mon, Apr 24
54 °FLight rain. Fog.17 mph97%29.91 "Hg3 mi
6:54 pm55 °FLight rain. Fog.15 mph96%29.92 "Hg3 mi
5:54 pm56 °FLight rain. Fog.15 mph97%29.92 "Hg2 mi
4:54 pm57 °FLight rain. Fog.18 mph96%29.91 "Hg2 mi
3:54 pm57 °FDrizzle. Fog.15 mph96%29.92 "Hg1 mi
3:20 pm57 °FDrizzle. Fog.12 mph96%29.92 "Hg2 mi
2:54 pm56 °FDrizzle. Fog.13 mph97%29.95 "Hg5 mi
1:54 pm55 °FDrizzle. Fog.14 mph96%29.97 "Hg6 mi
12:54 pm55 °FDrizzle. Fog.13 mph93%29.99 "Hg5 mi
11:54 am54 °FDrizzle. Fog.8 mph97%30.00 "Hg6 mi
10:54 am53 °FFog.13 mph96%30.00 "Hg4 mi
9:54 am51 °FLight rain. Fog.13 mph96%30.00 "Hg1 mi
8:54 am51 °FDrizzle. Fog.14 mph96%30.01 "Hg1 mi
7:54 am51 °FDrizzle. Fog.12 mph96%30.01 "Hg1 mi
7:38 am51 °FDrizzle. Fog.12 mph96%29.99 "Hg1 mi
7:17 am51 °FDrizzle. Fog.13 mph96%29.99 "Hg1 mi
6:54 am51 °FDrizzle. Fog.12 mph96%30.00 "Hg2 mi
5:54 am50 °FFog.14 mph100%29.99 "Hg5 mi
4:54 am51 °FFog.10 mph96%30.00 "Hg4 mi
3:54 am51 °FFog.10 mph96%30.01 "Hg2 mi
2:54 am51 °FRain. Fog.9 mph96%30.01 "Hg2 mi
2:35 am51 °FLight rain. Fog.9 mph100%30.01 "Hg2 mi
2:23 am51 °FLight rain. Fog.8 mph96%30.02 "Hg2 mi
1:54 am52 °FLight rain. Fog.8 mph93%30.04 "Hg2 mi
12:54 am52 °FLow clouds.8 mph100%30.06 "Hg10 mi
11:54 pm
Sun, Apr 23
53 °FLight rain. Low clouds.6 mph96%30.08 "Hg10 mi
10:54 pm53 °FLow clouds.7 mph96%30.08 "Hg10 mi
9:54 pm53 °FLight rain. Overcast.5 mph96%30.09 "Hg9 mi
9:16 pm53 °FLight rain. Overcast.3 mph96%30.09 "Hg10 mi
Weather by CustomWeather, © 2017

See weather overviewHow to use our weather pages